Location: Britannia Beach
(45.3521°N, 62.9901°W)
Time: 08:20:23
(UTC+00:00)

X-37B - Pass Details

Date: 10 August 2021
Orbit: 381 x 393 km, 45.0° (Epoch: 29 August)

Event Time Altitude Azimuth Distance (km) Brightness Sun altitude
Exits shadow 05:55:12 10° 86° (E) 1,377 3.7 -25.2°
Drops below altitude 10° 05:55:15 10° 86° (E) 1,398 3.7 -25.2°
Sets 05:57:19 0° 85° (E) 2,251 4.9 -25.1°
